SCP
0 0 0 0 0 0 0 0 0 0 0 0 0 0 0 0 0 0 0 0 0 0 0 0 0 0 0 0 0 0 0 0 0 0 0 0 0 0
0 0 0 0 0 0 0 0 0 0 0 0 0 0 0 0 0 0 0 0 0 0 0 0 0 0 0 0 0 0 0 0 0 0 0 0 0 0
0 0 0 0 0 0 0 0 0 0 0 0 0 0 0 0 0 0 0 0 0 0 0 0 0 0 0 0 0 0 0 0 0 0 0 0 0 0
0 0 0 0 0 0 0 0 0 0 0 0 0 0 0 0 0 0 0 0 0 0 0 0 0 0 0 0 0 0 0 0 0 0 0 0 0 0
0 0 0 0 0 0 0 0 0 0 0 0 0 0 0 0 0 0 0 0 0 0 0 0 0 0 0 0 0 0 0 0 0 0 0 0 0 0
0 0 0 0 0 0 0 0 0 0 0 0 0 0 0 0 0 0 0 0 0 0 0 0 0 0 0 0 0 0 0 0 0 0 0 0 0 0
0 0 0 0 0 0 0 0 0 0 0 0 0 0 0 0 0 0 0 0 0 0 0 0 0 0 0 0 0 0 0 0 0 0 0 0 0 0
0 0 0 0 0 0 0 0 0 0 0 0 0 0 0 0 0 0 0 0 0 0 0 0 0 0 0 0 0 0 0 0 0 0 0 0 0 0
0 0 0 0 0 0 0 0 0 0 0 0 0 0 0 0 0 0 0 0 0 0 0 0 0 0 0 0 0 0 0 0 0 0 -0 -0 0 0
0 0 0 0 0 0 0 0 0 0 0 0 0 0 0 0 0 0 0 0 0 0 0 0 0 0 0 0 0 0 -0 -0 -0 0 -0 0 0 0
0 0 0 0 0 0 0 0 0 0 0 0 0 0 0 0 0 0 0 0 0 0 0 0 0 0 0 0 0 0 0 0 0 0 0 0 0 0
0 0 0 0 0 0 0 0 0 0 0 0 0 0 0 0 0 0 0 0 0 0 0 0 0 0 0 0 0 0 0 0 0 0 0 0 0 0
0 0 0 0 0 0 0 0 0 0 0 0 0 0 0 0 0 0 0 0 0 0 0 0 0 0 0 0 0 0 0 0 0 0 0 0 0 0
0 0 0 0 0 0 0 0 0 0 0 0 0 0 0 0 0 0 0 0 0 0 0 0 0 0 0 0 0 0 0 0 0 0 0 0 0 0
0 0 0 0 0 0 0 0 0 0 0 0 0 0 0 0 0 0 0 0 0 0 0 0 0 0 0 0 0 0 0 0 0 0 0 0 0 0
0 0 0 0 0 0 0 0 0 0 0 0 0 0 0 0 0 0 0 0 0 0 0 0 0 0 0 0 0 0 0 0 0 0 0 0 0 0
0 0 0 0 0 0 0 0 0 0 0 0 0 0 0 0 0 0 0 0 0 0 0 0 0 0 0 0 0 0 0 0 0 0 0 0 0 0
0 0 0 0 0 0 0 0 0 0 0 0 0 0 0 0 0 0 0 0 0 0 0 0 0 0 0 0 0 0 0 0 0 0 0 0 0 0
0 0 0 0 0 0 0 0 0 0 0 0 0 0 0 0 0 0 0 0 0 0 0 0 0 0 0 0 0 0 0 0 0 0 0 0 0 0
0 0 0 0 0 0 0 0 0 0 0 0 0 0 0 0 0 0 0 0 0 0 0 0 0 0 0 0 0 0 0 0 0 0 0 0 0 0
0 0 0 0 0 0 0 0 0 0 0 0 0 0 0 0 0 0 0 0 0 0 0 0 0 0 0 0 0 0 0 0 0 0 0 0 0 0
0 0 0 0 0 0 0 0 0 0 0 0 0 0 0 0 0 0 0 0 0 0 0 0 0 0 0 0 0 0 0 0 0 0 0 0 0 0
0 0 0 0 0 0 0 0 0 0 0 0 0 0 0 0 0 0 0 0 0 0 0 0 0 0 0 0 0 0 0 0 0 0 0 0 0 0
Wind_Speed
4 4 5 4 4 4 5 5 6 7 6 4 4 4 4 4 3 6 6 3 5 7 7 7 8 9 9 9 9 9 9 9 10 11 12 12 12 13
3 4 5 4 4 4 4 5 5 7 7 5 5 4 4 6 4 7 7 6 8 8 7 7 8 9 9 9 10 10 9 9 10 11 11 11 11 12
5 4 5 5 5 4 4 4 4 5 7 7 5 4 5 7 6 7 7 7 5 6 7 7 7 8 8 8 9 9 9 9 9 10 10 11 11 11
4 4 5 4 5 5 4 5 5 5 7 8 7 6 5 6 6 7 7 6 6 5 8 8 8 8 8 8 8 8 8 9 9 9 10 10 10 10
4 4 5 5 5 4 5 5 5 5 6 7 7 5 5 5 6 7 7 6 7 5 8 9 10 9 9 9 9 9 9 9 9 9 9 10 10 10
3 4 4 5 5 5 5 5 5 6 6 6 6 6 5 5 5 6 6 5 6 6 5 5 7 10 10 10 9 9 9 9 9 9 9 9 10 9
3 4 4 4 4 5 5 5 6 6 6 6 6 6 5 5 6 6 7 6 6 5 5 5 5 6 7 9 10 9 8 8 8 8 9 9 10 10
3 4 4 3 2 4 4 5 6 7 7 7 7 7 7 7 6 6 7 7 6 4 5 6 5 5 5 5 4 6 7 7 8 8 8 8 9 9
3 4 4 3 3 4 3 5 6 6 7 8 9 8 8 7 8 9 7 8 7 6 6 7 5 5 5 4 6 7 7 7 8 8 8 8 8 9
3 4 4 4 4 5 7 6 6 5 5 6 7 8 8 7 7 9 9 8 8 6 6 6 6 6 5 3 6 8 8 8 8 8 8 8 8 8
3 3 4 4 4 5 6 6 7 6 4 5 6 8 8 8 8 7 7 7 6 5 4 6 6 5 5 4 4 8 9 9 8 9 9 9 8 9
2 2 1 3 4 5 6 7 7 7 7 6 5 6 7 6 8 7 6 7 6 6 4 5 5 5 5 4 3 3 5 7 9 9 9 9 8 7
4 3 2 3 3 5 7 6 7 9 8 7 5 5 4 3 3 4 5 5 6 6 5 4 5 5 5 4 4 3 4 3 5 7 9 10 9 8
5 4 3 2 5 7 6 5 7 9 6 5 5 5 4 4 4 4 4 5 6 7 7 6 5 5 5 5 4 4 3 3 4 4 4 8 10 10
4 4 5 6 8 7 6 7 7 5 5 5 5 5 4 4 5 4 4 5 6 6 5 6 6 5 5 5 5 5 4 3 3 3 3 4 5 5
5 5 8 10 9 6 5 4 4 4 5 5 5 5 4 4 4 4 4 4 4 4 4 5 5 6 5 5 5 5 4 4 3 3 3 3 4 5
6 5 4 3 4 3 3 3 4 4 4 4 5 5 4 4 4 4 4 5 5 4 4 3 4 4 4 5 5 4 4 4 3 2 3 4 4 4
6 5 4 4 4 4 4 4 4 4 4 4 4 5 5 5 5 4 4 4 5 4 4 4 3 3 4 3 3 5 5 4 3 3 4 4 4 4
5 4 4 4 5 5 4 5 4 4 4 5 4 4 4 5 5 5 4 4 4 4 4 3 3 3 4 4 2 4 5 4 3 3 3 3 3 3
4 4 4 4 4 5 5 5 5 4 4 4 4 4 4 5 5 5 4 5 5 4 4 3 3 3 4 4 4 3 4 4 3 3 3 3 3 2
4 4 4 4 4 5 5 5 5 4 5 5 4 5 4 4 5 5 4 4 5 4 4 3 2 3 4 3 4 3 1 2 2 3 4 3 3 3
4 4 4 4 4 5 5 4 4 4 5 4 5 5 5 5 5 5 5 5 4 4 4 3 2 3 3 3 4 3 3 1 2 2 2 3 4 3
4 4 4 4 4 4 4 5 5 5 4 4 4 5 5 5 4 4 4 5 5 4 4 4 3 2 3 3 3 3 3 3 1 1 1 2 3 3
Wind_Direction
277 271 273 278 273 273 275 278 281 289 289 279 279 275 279 284 289 277 278 242 252 262 264 265 267 262 255 250 248 249 250 250 245 239 235 234 235 234
280 283 280 285 285 277 274 274 275 282 290 300 295 299 301 288 275 279 275 250 234 239 247 257 263 263 258 252 248 246 244 245 245 243 239 235 234 233
272 272 277 286 287 284 280 278 277 278 283 294 298 308 292 284 283 279 275 272 251 219 232 245 255 259 255 252 250 248 242 239 237 240 240 237 234 233
288 289 288 286 282 281 285 282 280 276 279 290 293 293 290 285 280 280 278 272 268 220 220 231 240 244 244 244 245 246 245 240 234 233 236 237 236 234
293 292 290 286 283 290 285 287 287 286 285 285 288 293 287 291 288 277 275 272 268 238 213 218 227 234 238 238 238 239 238 237 234 232 233 234 234 232
294 289 294 295 288 289 283 284 291 292 286 284 289 294 296 298 293 289 283 268 270 273 257 241 225 222 228 230 230 231 232 232 231 230 231 230 229 227
296 297 300 301 308 293 302 309 302 296 297 296 296 303 307 310 300 297 293 288 277 274 271 257 241 239 226 219 219 222 222 225 229 230 230 231 230 226
308 307 288 263 272 251 262 282 290 291 299 298 299 302 299 299 302 295 294 294 291 295 289 277 267 261 253 244 208 196 212 221 228 230 228 230 231 229
313 306 308 340 316 317 293 254 255 247 257 279 291 296 300 302 299 290 288 290 288 294 290 281 277 265 254 230 184 192 207 219 226 230 229 228 228 228
304 304 305 320 347 337 317 313 310 304 287 277 287 293 298 304 297 288 287 282 275 267 268 273 276 272 271 252 185 195 207 218 224 226 226 227 228 226
297 312 315 326 19 334 306 306 307 302 271 256 264 273 278 275 278 285 286 284 285 283 280 277 279 281 277 261 206 194 204 212 218 221 223 226 227 227
288 282 60 359 1 327 309 310 307 312 311 298 268 254 256 250 238 255 277 283 290 289 299 288 283 284 275 260 257 214 207 205 208 211 213 216 217 230
313 317 20 66 332 305 295 301 309 304 295 292 292 294 289 287 279 273 282 283 286 284 292 288 285 283 274 276 271 260 251 241 218 211 205 204 208 227
308 320 354 357 301 285 286 301 294 286 289 305 310 314 316 318 320 312 300 293 286 284 294 295 285 285 284 281 279 270 259 255 250 244 229 194 205 215
297 315 293 275 275 266 245 256 270 282 303 308 311 312 311 315 307 297 288 275 273 279 282 282 276 275 277 280 282 281 274 262 255 246 234 227 228 219
267 261 239 242 249 263 265 256 271 298 305 303 306 309 310 306 298 298 294 291 284 280 274 270 270 272 272 275 275 276 275 270 263 253 253 245 239 236
311 284 285 292 290 296 296 295 293 291 287 298 303 305 304 301 298 294 288 285 280 282 286 273 254 249 262 277 276 277 279 277 272 268 253 250 241 236
284 285 300 308 310 311 309 306 299 305 309 305 301 304 305 303 301 298 291 289 288 284 281 279 278 265 249 235 256 273 272 272 268 252 248 252 252 243
256 281 298 306 306 305 307 308 310 320 316 305 306 306 304 301 299 300 299 297 290 287 287 283 276 275 279 276 226 233 270 278 270 258 256 262 262 258
263 285 292 295 297 302 307 309 310 313 309 306 305 302 299 299 299 298 299 304 298 292 287 282 276 279 282 293 295 273 233 264 276 275 270 263 255 222
288 291 296 303 307 306 308 306 305 306 309 305 302 301 298 296 297 296 299 299 288 291 295 293 298 266 268 272 271 271 247 196 271 284 285 274 261 248
296 298 302 305 306 307 308 308 307 305 306 302 304 300 298 295 295 296 300 297 294 297 301 297 276 255 259 267 281 289 286 248 207 218 266 284 286 284
300 307 307 300 302 306 308 309 307 305 308 308 305 301 300 302 302 299 296 296 297 299 298 295 286 274 274 277 286 290 293 295 289 261 267 183 196 233